Time,TemperatureF,DewpointF,PressureIn,WindDirection,WindDirectionDegrees,WindSpeedMPH,WindSpeedGustMPH,Humidity,HourlyPrecipIn,Conditions,Clouds,dailyrainin,SoftwareType,DateUTC
2013-03-22 00:26:00,17.9,8.0,29.87,NNW,328,0.0,5.0,64,0.00,,,0.00,weatherlink.com 1.10,2013-03-22 06:26:00,
2013-03-22 00:41:00,17.6,8.0,29.87,NNE,17,0.0,0.0,65,0.00,,,0.00,weatherlink.com 1.10,2013-03-22 06:41:00,
2013-03-22 00:56:00,16.7,7.0,29.87,WNW,300,1.0,2.0,67,0.00,,,0.00,weatherlink.com 1.10,2013-03-22 06:56:00,
2013-03-22 01:11:00,15.8,6.0,29.87,NW,315,4.0,6.0,66,0.00,,,0.00,weatherlink.com 1.10,2013-03-22 07:11:00,
2013-03-22 01:26:00,15.4,7.0,29.88,WNW,285,1.0,3.0,68,0.00,,,0.00,weatherlink.com 1.10,2013-03-22 07:26:00,
2013-03-22 01:42:00,15.0,5.0,29.88,West,276,1.0,3.0,65,0.00,,,0.00,weatherlink.com 1.10,2013-03-22 07:42:00,
2013-03-22 01:56:00,14.6,5.0,29.88,WSW,252,1.0,3.0,66,0.00,,,0.00,weatherlink.com 1.10,2013-03-22 07:56:00,
2013-03-22 02:11:00,13.6,5.0,29.88,WNW,302,1.0,4.0,68,0.00,,,0.00,weatherlink.com 1.10,2013-03-22 08:11:00,
2013-03-22 02:26:00,13.2,5.0,29.88,NW,324,0.0,2.0,69,0.00,,,0.00,weatherlink.com 1.10,2013-03-22 08:26:00,
2013-03-22 02:41:00,13.2,5.0,29.87,WNW,290,0.0,5.0,69,0.00,,,0.00,weatherlink.com 1.10,2013-03-22 08:41:00,
2013-03-22 02:57:00,11.9,4.0,29.88,NW,311,1.0,2.0,70,0.00,,,0.00,weatherlink.com 1.10,2013-03-22 08:57:00,
2013-03-22 03:11:00,11.3,4.0,29.88,NW,324,0.0,2.0,71,0.00,,,0.00,weatherlink.com 1.10,2013-03-22 09:11:00,
2013-03-22 03:26:00,11.7,4.0,29.88,West,278,0.0,2.0,71,0.00,,,0.00,weatherlink.com 1.10,2013-03-22 09:26:00,
2013-03-22 03:42:00,11.4,4.0,29.88,West,271,0.0,0.0,72,0.00,,,0.00,weatherlink.com 1.10,2013-03-22 09:42:00,
2013-03-22 03:57:00,11.2,3.0,29.88,NW,308,3.0,3.0,70,0.00,,,0.00,weatherlink.com 1.10,2013-03-22 09:57:00,
2013-03-22 04:12:00,10.2,3.0,29.88,West,281,0.0,2.0,72,0.00,,,0.00,weatherlink.com 1.10,2013-03-22 10:12:00,
2013-03-22 04:27:00,9.4,2.0,29.88,NNW,328,0.0,2.0,73,0.00,,,0.00,weatherlink.com 1.10,2013-03-22 10:27:00,
2013-03-22 04:42:00,9.6,3.0,29.88,West,281,1.0,2.0,75,0.00,,,0.00,weatherlink.com 1.10,2013-03-22 10:42:00,
2013-03-22 04:57:00,8.5,2.0,29.88,West,281,1.0,4.0,74,0.00,,,0.00,weatherlink.com 1.10,2013-03-22 10:57:00,
2013-03-22 05:13:00,8.7,3.0,29.88,NW,324,1.0,2.0,77,0.00,,,0.00,weatherlink.com 1.10,2013-03-22 11:13:00,
2013-03-22 05:27:00,9.4,3.0,29.89,West,273,1.0,2.0,74,0.00,,,0.00,weatherlink.com 1.10,2013-03-22 11:27:00,
2013-03-22 05:42:00,8.4,2.0,29.89,WNW,298,0.0,2.0,75,0.00,,,0.00,weatherlink.com 1.10,2013-03-22 11:42:00,
2013-03-22 05:57:00,9.0,3.0,29.89,NNW,328,1.0,2.0,76,0.00,,,0.00,weatherlink.com 1.10,2013-03-22 11:57:00,
2013-03-22 06:12:00,9.1,2.0,29.90,WNW,285,1.0,2.0,74,0.00,,,0.00,weatherlink.com 1.10,2013-03-22 12:12:00,
2013-03-22 06:27:00,9.3,2.0,29.91,NW,322,0.0,3.0,72,0.00,,,0.00,weatherlink.com 1.10,2013-03-22 12:27:00,
2013-03-22 06:42:00,9.4,2.0,29.92,NW,315,0.0,3.0,71,0.00,,,0.00,weatherlink.com 1.10,2013-03-22 12:42:00,
2013-03-22 06:57:00,9.2,2.0,29.92,NW,313,2.0,2.0,72,0.00,,,0.00,weatherlink.com 1.10,2013-03-22 12:57:00,
2013-03-22 07:12:00,8.8,2.0,29.93,NW,324,1.0,2.0,74,0.00,,,0.00,weatherlink.com 1.10,2013-03-22 13:12:00,
2013-03-22 07:27:00,8.3,2.0,29.94,NW,316,1.0,3.0,74,0.00,,,0.00,weatherlink.com 1.10,2013-03-22 13:27:00,
2013-03-22 07:42:00,9.4,2.0,29.94,NW,316,0.0,2.0,73,0.00,,,0.00,weatherlink.com 1.10,2013-03-22 13:42:00,
2013-03-22 07:57:00,10.4,3.0,29.94,West,267,0.0,2.0,73,0.00,,,0.00,weatherlink.com 1.10,2013-03-22 13:57:00,
2013-03-22 08:12:00,11.0,2.0,29.94,NNW,338,0.0,2.0,68,0.00,,,0.00,weatherlink.com 1.10,2013-03-22 14:12:00,
2013-03-22 08:27:00,12.0,3.0,29.95,West,259,0.0,0.0,67,0.00,,,0.00,weatherlink.com 1.10,2013-03-22 14:27:00,
2013-03-22 08:42:00,13.0,4.0,29.95,West,281,1.0,2.0,67,0.00,,,0.00,weatherlink.com 1.10,2013-03-22 14:42:00,
2013-03-22 08:57:00,15.0,3.0,29.95,WNW,285,0.0,1.0,59,0.00,,,0.00,weatherlink.com 1.10,2013-03-22 14:57:00,
2013-03-22 09:12:00,16.8,3.0,29.95,NW,311,0.0,2.0,55,0.00,,,0.00,weatherlink.com 1.10,2013-03-22 15:12:00,
2013-03-22 09:27:00,19.8,5.0,29.95,NW,319,0.0,1.0,53,0.00,,,0.00,weatherlink.com 1.10,2013-03-22 15:27:00,
2013-03-22 09:42:00,22.1,5.0,29.94,SE,136,0.0,1.0,48,0.00,,,0.00,weatherlink.com 1.10,2013-03-22 15:42:00,
2013-03-22 09:57:00,25.2,7.0,29.93,SE,140,1.0,3.0,46,0.00,,,0.00,weatherlink.com 1.10,2013-03-22 15:57:00,
2013-03-22 10:12:00,26.0,7.0,29.93,SSE,158,2.0,3.0,45,0.00,,,0.00,weatherlink.com 1.10,2013-03-22 16:12:00,
2013-03-22 10:28:00,24.2,7.0,29.92,SE,134,2.0,4.0,48,0.00,,,0.00,weatherlink.com 1.10,2013-03-22 16:28:00,
2013-03-22 10:43:00,24.5,8.0,29.91,SE,142,3.0,6.0,49,0.00,,,0.00,weatherlink.com 1.10,2013-03-22 16:43:00,
2013-03-22 10:58:00,25.9,10.0,29.90,SSE,150,6.0,7.0,51,0.00,,,0.00,weatherlink.com 1.10,2013-03-22 16:58:00,
2013-03-22 11:13:00,27.3,11.0,29.88,East,87,4.0,11.0,50,0.00,,,0.00,weatherlink.com 1.10,2013-03-22 17:13:00,
2013-03-22 11:28:00,29.1,13.0,29.89,SE,131,2.0,9.0,52,0.00,,,0.00,weatherlink.com 1.10,2013-03-22 17:28:00,
2013-03-22 11:43:00,35.1,13.0,29.88,WNW,288,5.0,19.0,41,0.00,,,0.00,weatherlink.com 1.10,2013-03-22 17:43:00,
2013-03-22 11:58:00,35.6,13.0,29.86,West,277,6.0,20.0,39,0.00,,,0.00,weatherlink.com 1.10,2013-03-22 17:58:00,
2013-03-22 12:13:00,35.7,13.0,29.86,SW,228,15.0,18.0,40,0.00,,,0.00,weatherlink.com 1.10,2013-03-22 18:13:00,
2013-03-22 12:28:00,35.6,15.0,29.86,NW,322,16.0,19.0,43,0.00,,,0.00,weatherlink.com 1.10,2013-03-22 18:28:00,
2013-03-22 12:43:00,35.9,14.0,29.84,WSW,240,1.0,20.0,41,0.00,,,0.00,weatherlink.com 1.10,2013-03-22 18:43:00,
2013-03-22 12:58:00,36.3,16.0,29.85,WSW,238,9.0,18.0,43,0.00,,,0.00,weatherlink.com 1.10,2013-03-22 18:58:00,
2013-03-22 13:13:00,34.5,16.0,29.84,SW,221,12.0,20.0,48,0.00,,,0.00,weatherlink.com 1.10,2013-03-22 19:13:00,
2013-03-22 13:28:00,35.8,18.0,29.84,WNW,284,15.0,15.0,48,0.00,,,0.00,weatherlink.com 1.10,2013-03-22 19:28:00,
2013-03-22 13:43:00,34.1,18.0,29.84,SSW,197,8.0,20.0,53,0.00,,,0.00,weatherlink.com 1.10,2013-03-22 19:43:00,
2013-03-22 13:58:00,31.1,21.0,29.84,NE,39,8.0,16.0,65,0.00,,,0.00,weatherlink.com 1.10,2013-03-22 19:58:00,
2013-03-22 14:14:00,30.8,22.0,29.82,NNW,342,5.0,9.0,70,0.00,,,0.00,weatherlink.com 1.10,2013-03-22 20:14:00,
2013-03-22 14:28:00,31.2,19.0,29.82,NE,55,0.0,7.0,61,0.00,,,0.00,weatherlink.com 1.10,2013-03-22 20:28:00,
2013-03-22 14:43:00,32.1,18.0,29.80,NE,56,3.0,10.0,56,0.00,,,0.00,weatherlink.com 1.10,2013-03-22 20:43:00,
2013-03-22 14:58:00,33.5,19.0,29.79,NE,49,5.0,10.0,55,0.00,,,0.00,weatherlink.com 1.10,2013-03-22 20:58:00,
2013-03-22 15:13:00,34.5,15.0,29.77,NNE,20,6.0,13.0,45,0.00,,,0.00,weatherlink.com 1.10,2013-03-22 21:13:00,
2013-03-22 15:28:00,36.4,9.0,29.76,ENE,58,4.0,20.0,32,0.00,,,0.00,weatherlink.com 1.10,2013-03-22 21:28:00,
2013-03-22 15:43:00,38.0,10.0,29.76,SW,232,8.0,16.0,32,0.00,,,0.00,weatherlink.com 1.10,2013-03-22 21:43:00,
2013-03-22 15:58:00,39.2,8.0,29.76,West,270,7.0,19.0,28,0.00,,,0.00,weatherlink.com 1.10,2013-03-22 21:58:00,
2013-03-22 16:13:00,39.7,7.0,29.76,SW,232,14.0,20.0,26,0.00,,,0.00,weatherlink.com 1.10,2013-03-22 22:13:00,
2013-03-22 16:28:00,39.7,4.0,29.75,NW,319,15.0,26.0,22,0.00,,,0.00,weatherlink.com 1.10,2013-03-22 22:28:00,
2013-03-22 16:43:00,39.9,2.0,29.74,NW,312,7.0,21.0,20,0.00,,,0.00,weatherlink.com 1.10,2013-03-22 22:43:00,
2013-03-22 16:58:00,40.1,-1.0,29.75,SSW,200,9.0,19.0,18,0.00,,,0.00,weatherlink.com 1.10,2013-03-22 22:58:00,
2013-03-22 17:14:00,40.4,-1.0,29.74,WSW,257,12.0,14.0,17,0.00,,,0.00,weatherlink.com 1.10,2013-03-22 23:14:00,
2013-03-22 17:29:00,39.8,-2.0,29.74,WSW,254,11.0,22.0,17,0.00,,,0.00,weatherlink.com 1.10,2013-03-22 23:29:00,
2013-03-22 17:44:00,39.2,0.0,29.75,West,266,19.0,22.0,19,0.00,,,0.00,weatherlink.com 1.10,2013-03-22 23:44:00,
2013-03-22 17:59:00,39.2,-1.0,29.75,West,271,8.0,21.0,18,0.00,,,0.00,weatherlink.com 1.10,2013-03-22 23:59:00,
2013-03-22 18:14:00,38.8,-3.0,29.75,WNW,285,8.0,20.0,17,0.00,,,0.00,weatherlink.com 1.10,2013-03-23 00:14:00,
2013-03-22 18:29:00,38.0,-3.0,29.76,West,269,8.0,27.0,17,0.00,,,0.00,weatherlink.com 1.10,2013-03-23 00:29:00,
2013-03-22 18:44:00,36.8,-3.0,29.75,WNW,288,13.0,33.0,18,0.00,,,0.00,weatherlink.com 1.10,2013-03-23 00:44:00,
2013-03-22 18:59:00,35.4,-4.0,29.75,WNW,290,3.0,15.0,18,0.00,,,0.00,weatherlink.com 1.10,2013-03-23 00:59:00,
2013-03-22 19:14:00,35.1,-4.0,29.77,NW,309,0.0,24.0,19,0.00,,,0.00,weatherlink.com 1.10,2013-03-23 01:14:00,
2013-03-22 19:29:00,34.5,-4.0,29.77,NNW,335,4.0,14.0,19,0.00,,,0.00,weatherlink.com 1.10,2013-03-23 01:29:00,
2013-03-22 19:44:00,33.5,-4.0,29.77,East,82,1.0,6.0,20,0.00,,,0.00,weatherlink.com 1.10,2013-03-23 01:44:00,
2013-03-22 19:59:00,32.9,-1.0,29.77,West,281,0.0,6.0,23,0.00,,,0.00,weatherlink.com 1.10,2013-03-23 01:59:00,
2013-03-22 20:14:00,32.5,-2.0,29.78,West,278,2.0,5.0,23,0.00,,,0.00,weatherlink.com 1.10,2013-03-23 02:14:00,
2013-03-22 20:29:00,31.3,-2.0,29.79,West,266,5.0,7.0,24,0.00,,,0.00,weatherlink.com 1.10,2013-03-23 02:29:00,
2013-03-22 20:44:00,30.5,2.0,29.79,West,271,0.0,3.0,30,0.00,,,0.00,weatherlink.com 1.10,2013-03-23 02:44:00,
2013-03-22 21:00:00,26.3,3.0,29.79,SW,232,0.0,2.0,37,0.00,,,0.00,weatherlink.com 1.10,2013-03-23 03:00:00,
2013-03-22 21:15:00,25.4,4.0,29.80,WSW,240,2.0,3.0,40,0.00,,,0.00,weatherlink.com 1.10,2013-03-23 03:15:00,
2013-03-22 21:30:00,25.6,5.0,29.80,NE,39,0.0,1.0,42,0.00,,,0.00,weatherlink.com 1.10,2013-03-23 03:30:00,
2013-03-22 21:45:00,25.8,5.0,29.81,West,271,2.0,4.0,41,0.00,,,0.00,weatherlink.com 1.10,2013-03-23 03:45:00,
2013-03-22 22:00:00,26.0,4.0,29.81,NNW,332,3.0,3.0,39,0.00,,,0.00,weatherlink.com 1.10,2013-03-23 04:00:00,
2013-03-22 22:15:00,27.8,8.0,29.82,NW,308,5.0,15.0,44,0.00,,,0.00,weatherlink.com 1.10,2013-03-23 04:15:00,
2013-03-22 22:30:00,26.7,9.0,29.83,NNW,342,4.0,11.0,48,0.00,,,0.00,weatherlink.com 1.10,2013-03-23 04:30:00,
2013-03-22 22:45:00,25.9,9.0,29.83,North,352,7.0,8.0,49,0.00,,,0.00,weatherlink.com 1.10,2013-03-23 04:45:00,
2013-03-22 23:00:00,25.2,9.0,29.83,WNW,291,3.0,8.0,50,0.00,,,0.00,weatherlink.com 1.10,2013-03-23 05:00:00,
2013-03-22 23:15:00,24.0,8.0,29.82,NW,304,4.0,7.0,50,0.00,,,0.00,weatherlink.com 1.10,2013-03-23 05:15:00,
2013-03-22 23:30:00,23.6,8.0,29.82,WNW,291,6.0,9.0,51,0.00,,,0.00,weatherlink.com 1.10,2013-03-23 05:30:00,
2013-03-22 23:45:00,23.1,7.0,29.82,WNW,300,7.0,10.0,50,0.00,,,0.00,weatherlink.com 1.10,2013-03-23 05:45:00,